Mineralnyye Vody Airport

Jump to: basic info | weather | frequencies | runways | comments

Related pages: nearby airports | nearby navaids | notams | map

Basic information (top)

Codes: MRV URMM
Location: lon 44.225101, lat 43.081902, elev 1,054 ft / 321 m msl
Status: medium_airport
Scheduled airline service: yes
Links: Wikipedia Mobile

Weather (top)

Current conditions (rec'd 2014/09/18 14:00Z):

URMM 181400Z 13009G12MPS 9999 BKN016 OVC040CB 13/10 Q1020 R12/CLRD70 TEMPO 12012G17MPS RMK MT OBSC QFE737/0982

Airport forecast (rec'd 2014/09/18 15:00Z):

TAF URMM 181347Z 1815/1915 10007G12MPS 9999 BKN010CB 530001 
      TEMPO 1815/1821 12012G17MPS 3000 -SHRA BKN004 BKN010CB 
      TEMPO 1821/1906 12003G08MPS 1200 SHRA BKN004 BKN010CB 
      TEMPO 1906/1915 3000 -SHRA BKN004

Frequencies (top)

Verify before use: may be inaccurate or out of date.

APP: 119.3 MHz (APP)
ATIS: 127.4 MHz (ATIS)
GND: 121.9 MHz (TAXIING)
RDR: 120.7 MHz (KRUG)
TWR: 128 MHz (START)

Runways (top)

12/30: 12,795 x 197 ft (3,900 x 60 m) — paved — lighted

Latest comments (top)

No comments yet for Mineralnyye Vody Airport

More... (top)

See also NOTAMs and nearby airports and navaids, or visit the Mineralnyye Vody Airport page at the main OurAirports website..